LHA4MK KSEA-EDDK

Flight info

Callsign LHA4MK
Flight time 9h 12m
Altitude 35000
Route PANGL DCT BOOTH DCT VIDRI Q949 URPUX DCT YMM DCT YSF DCT YTE DCT YXP DCT HB DCT 6750N DCT 6740N DCT 6630N DCT 6420N DCT 6110N DCT 5600N DCT NVO
Aircraft A388/J-SADE2E3FGHIJ4M1RWXYZE3/S

Departure

Time 2026-05-04 06:45
Airport Seattle–Tacoma International Airport (KSEA)

Arrival

Time 2026-05-04 15:58
Airport Cologne Bonn Airport (EDDK)
Time Latitude Longitude Altitude Speed Heading
2026-05-04 06:28 47.43950 -122.30264 392 ft 0 kts 152°
2026-05-04 06:34 47.43961 -122.30273 392 ft 4 kts 152°
2026-05-04 06:34 47.43984 -122.30292 392 ft 3 kts 152°
2026-05-04 06:34 47.44000 -122.30308 392 ft 4 kts 123°
2026-05-04 06:35 47.44003 -122.30328 392 ft 4 kts 78°
2026-05-04 06:36 47.43987 -122.30394 391 ft 0 kts 72°
2026-05-04 06:38 47.43987 -122.30393 391 ft 0 kts 72°
2026-05-04 06:40 47.43780 -122.29996 390 ft 20 kts 226°
2026-05-04 06:40 47.43756 -122.30176 388 ft 20 kts 256°
2026-05-04 06:40 47.43736 -122.30281 387 ft 0 kts 253°
2026-05-04 06:41 47.43726 -122.30345 386 ft 21 kts 264°
2026-05-04 06:41 47.43721 -122.30577 382 ft 22 kts 265°
2026-05-04 06:41 47.43658 -122.30632 378 ft 11 kts 161°
2026-05-04 06:42 47.43580 -122.30579 378 ft 13 kts 156°
2026-05-04 06:42 47.43486 -122.30565 374 ft 15 kts 179°
2026-05-04 06:42 47.43436 -122.30564 373 ft 0 kts 178°
2026-05-04 06:44 47.43183 -122.30786 366 ft 2 kts 325°
2026-05-04 06:44 47.43257 -122.30806 365 ft 15 kts
2026-05-04 06:44 47.43532 -122.30803 372 ft 76 kts 360°
2026-05-04 06:45 47.44290 -122.30798 395 ft 138 kts
2026-05-04 06:45 47.45389 -122.30784 473 ft 172 kts
2026-05-04 06:45 47.46595 -122.30779 988 ft 174 kts
2026-05-04 06:45 47.47829 -122.30771 1500 ft 180 kts
2026-05-04 06:46 47.49079 -122.30766 2041 ft 181 kts
2026-05-04 06:46 47.50371 -122.30755 2399 ft 187 kts 360°
2026-05-04 06:46 47.51718 -122.30788 2540 ft 201 kts 358°
2026-05-04 06:46 47.53153 -122.30868 2696 ft 210 kts 358°
2026-05-04 06:48 47.61404 -122.41656 6121 ft 276 kts 280°
2026-05-04 06:48 47.61722 -122.44474 6754 ft 279 kts 281°
2026-05-04 06:49 47.62037 -122.47330 7381 ft 282 kts 277°
2026-05-04 06:50 47.63972 -122.68587 10644 ft 337 kts 306°
2026-05-04 06:51 47.65671 -122.71010 11021 ft 342 kts 329°
2026-05-04 06:51 47.67870 -122.72304 11543 ft 344 kts 351°
2026-05-04 06:51 47.70252 -122.72299 12102 ft 344 kts 12°
2026-05-04 06:51 47.72493 -122.71175 12653 ft 346 kts 23°
2026-05-04 06:52 47.74718 -122.69780 13190 ft 349 kts 21°
2026-05-04 06:52 47.77004 -122.68545 13750 ft 351 kts 18°
2026-05-04 06:52 47.79356 -122.67502 14241 ft 353 kts 15°
2026-05-04 06:52 47.81743 -122.66584 14746 ft 355 kts 14°
2026-05-04 06:53 47.84154 -122.65720 15231 ft 358 kts 13°
2026-05-04 06:53 47.86583 -122.64870 15713 ft 360 kts 13°
2026-05-04 06:53 47.89034 -122.64015 16199 ft 362 kts 13°
2026-05-04 06:53 47.91492 -122.63154 16664 ft 364 kts 13°
2026-05-04 06:54 47.93970 -122.62281 17154 ft 367 kts 13°
2026-05-04 06:54 47.96454 -122.61404 17640 ft 368 kts 13°
2026-05-04 06:54 47.98954 -122.60519 18094 ft 370 kts 13°
2026-05-04 06:54 48.01467 -122.59629 18517 ft 372 kts 13°
2026-05-04 06:55 48.03981 -122.58737 18959 ft 373 kts 13°
2026-05-04 06:55 48.06515 -122.57837 19368 ft 374 kts 13°
2026-05-04 06:55 48.09050 -122.56936 19773 ft 375 kts 13°
2026-05-04 06:55 48.11595 -122.56031 20194 ft 376 kts 13°
2026-05-04 06:56 48.14145 -122.55123 20595 ft 378 kts 13°
2026-05-04 06:57 48.32275 -122.48640 23287 ft 388 kts 13°
2026-05-04 06:58 48.34908 -122.47696 23629 ft 390 kts 13°
2026-05-04 06:58 48.37546 -122.46748 23948 ft 391 kts 13°
2026-05-04 06:58 48.40202 -122.45792 24262 ft 392 kts 13°
2026-05-04 06:58 48.42859 -122.44835 24575 ft 394 kts 13°
2026-05-04 06:59 48.45525 -122.43873 24900 ft 395 kts 13°
2026-05-04 06:59 48.48205 -122.42906 25208 ft 397 kts 13°
2026-05-04 06:59 48.50899 -122.41932 25537 ft 398 kts 13°
2026-05-04 06:59 48.53603 -122.40954 25847 ft 401 kts 13°
2026-05-04 07:01 48.72797 -122.33979 28452 ft 412 kts 13°
2026-05-04 07:01 48.75592 -122.32960 28821 ft 414 kts 13°
2026-05-04 07:02 48.78402 -122.31932 29199 ft 416 kts 13°
2026-05-04 07:02 48.81222 -122.30900 29590 ft 418 kts 14°
2026-05-04 07:02 48.84058 -122.29860 29980 ft 420 kts 14°
2026-05-04 07:02 48.86907 -122.28816 30341 ft 422 kts 14°
2026-05-04 07:03 48.89759 -122.27769 30745 ft 422 kts 14°
2026-05-04 07:03 48.92613 -122.26720 31139 ft 422 kts 14°
2026-05-04 07:03 48.95470 -122.25669 31508 ft 423 kts 14°
2026-05-04 07:03 48.98336 -122.24612 31875 ft 424 kts 14°
2026-05-04 07:04 49.01207 -122.23554 32240 ft 425 kts 14°
2026-05-04 07:04 49.04081 -122.22492 32584 ft 426 kts 14°
2026-05-04 07:04 49.06965 -122.21426 32918 ft 427 kts 13°
2026-05-04 07:04 49.09856 -122.20356 33264 ft 428 kts 13°
2026-05-04 07:05 49.12755 -122.19282 33612 ft 429 kts 13°
2026-05-04 07:05 49.15659 -122.18205 33935 ft 431 kts 13°
2026-05-04 07:05 49.18573 -122.17122 34228 ft 432 kts 13°
2026-05-04 07:05 49.21488 -122.16038 34554 ft 432 kts 14°
2026-05-04 07:06 49.27322 -122.13864 34876 ft 440 kts 14°
2026-05-04 07:06 49.30277 -122.12760 34878 ft 434 kts 13°
2026-05-04 07:07 49.36153 -122.10563 34875 ft 435 kts 14°
2026-05-04 07:08 49.56421 -122.01284 34888 ft 434 kts 25°
2026-05-04 07:09 49.59109 -121.99198 34875 ft 432 kts 24°
2026-05-04 07:09 49.64504 -121.95106 34866 ft 431 kts 24°
2026-05-04 07:10 49.69867 -121.91010 34868 ft 428 kts 24°
2026-05-04 07:12 49.91391 -121.74366 34910 ft 434 kts 24°
2026-05-04 07:12 49.96798 -121.70157 34903 ft 435 kts 24°
2026-05-04 07:13 50.02278 -121.65886 34914 ft 445 kts 24°
2026-05-04 07:13 50.07727 -121.61622 34909 ft 434 kts 24°
2026-05-04 07:14 50.21043 -121.50439 34915 ft 439 kts 33°
2026-05-04 07:15 50.25568 -121.43938 34924 ft 447 kts 44°
2026-05-04 07:15 50.29460 -121.36327 34927 ft 448 kts 46°
2026-05-04 07:16 50.33341 -121.28713 34924 ft 447 kts 46°
2026-05-04 07:16 50.37198 -121.21093 34921 ft 446 kts 46°
2026-05-04 07:17 50.41034 -121.13461 34897 ft 445 kts 46°
2026-05-04 07:17 50.44828 -121.05891 34918 ft 445 kts 46°
2026-05-04 07:18 50.48646 -120.98254 34916 ft 445 kts 46°
2026-05-04 07:18 50.52457 -120.90603 34918 ft 445 kts 46°
2026-05-04 07:19 50.56272 -120.82925 34920 ft 446 kts 46°
2026-05-04 07:19 50.60088 -120.75221 34962 ft 447 kts 46°
2026-05-04 07:20 50.63919 -120.67462 34956 ft 449 kts 46°
2026-05-04 07:20 50.67747 -120.59686 34961 ft 449 kts 46°
2026-05-04 07:22 50.82985 -120.28505 34953 ft 447 kts 45°
2026-05-04 07:23 50.86131 -120.22020 34942 ft 447 kts 45°
2026-05-04 07:23 50.89906 -120.14217 34939 ft 446 kts 45°
2026-05-04 07:24 50.93669 -120.06415 34960 ft 446 kts 45°
2026-05-04 07:24 50.97436 -119.98588 34930 ft 446 kts 45°
2026-05-04 07:26 51.12400 -119.67244 34923 ft 446 kts 45°
2026-05-04 07:27 51.16138 -119.59351 34931 ft 447 kts 45°
2026-05-04 07:27 51.19876 -119.51434 34926 ft 447 kts 45°
2026-05-04 07:28 51.23614 -119.43495 34933 ft 448 kts 45°
2026-05-04 07:28 51.27357 -119.35517 34939 ft 449 kts 45°
2026-05-04 07:29 51.31101 -119.27522 34955 ft 450 kts 45°
2026-05-04 07:29 51.34842 -119.19505 34955 ft 449 kts 45°
2026-05-04 07:30 51.38570 -119.11487 34950 ft 449 kts 45°
2026-05-04 07:30 51.42292 -119.03457 34949 ft 449 kts 45°
2026-05-04 07:31 51.46009 -118.95416 34956 ft 449 kts 45°
2026-05-04 07:33 51.60756 -118.63264 34993 ft 448 kts 45°
2026-05-04 07:33 51.64444 -118.55162 34959 ft 449 kts 45°
2026-05-04 07:34 51.68133 -118.47031 34963 ft 452 kts 45°
2026-05-04 07:34 51.71830 -118.38865 34988 ft 451 kts 45°
2026-05-04 07:35 51.75532 -118.30657 34970 ft 453 kts 46°
2026-05-04 07:35 51.79220 -118.22434 35000 ft 452 kts 45°
2026-05-04 07:36 51.82904 -118.14199 34979 ft 451 kts 45°
2026-05-04 07:38 51.97443 -117.81499 34977 ft 447 kts 46°
2026-05-04 07:38 52.01047 -117.73321 35003 ft 450 kts 45°
2026-05-04 07:39 52.04693 -117.65036 34963 ft 450 kts 46°
2026-05-04 07:39 52.08255 -117.56713 34978 ft 449 kts 45°
2026-05-04 07:40 52.10102 -117.52572 35085 ft 456 kts 44°
2026-05-04 07:40 52.11975 -117.48349 35053 ft 465 kts 45°
2026-05-04 07:40 52.15655 -117.39885 35026 ft 449 kts 45°
2026-05-04 07:41 52.19229 -117.31635 35042 ft 450 kts 45°
2026-05-04 07:41 52.22850 -117.23266 35066 ft 450 kts 45°
2026-05-04 07:42 52.26451 -117.14898 35116 ft 451 kts 45°
2026-05-04 07:42 52.30050 -117.06507 35084 ft 450 kts 45°
2026-05-04 07:43 52.33630 -116.98133 35086 ft 449 kts 45°
2026-05-04 07:43 52.37202 -116.89751 35094 ft 449 kts 45°
2026-05-04 07:44 52.40761 -116.81376 35076 ft 447 kts 45°
2026-05-04 07:44 52.44314 -116.72997 35083 ft 448 kts 45°
2026-05-04 07:45 52.47866 -116.64585 35087 ft 449 kts 45°
2026-05-04 07:45 52.51414 -116.56158 35089 ft 448 kts 45°
2026-05-04 07:46 52.54949 -116.47723 35092 ft 449 kts 45°
2026-05-04 07:46 52.58487 -116.39256 35100 ft 450 kts 45°
2026-05-04 07:47 52.62040 -116.30737 35097 ft 453 kts 45°
2026-05-04 07:49 52.80060 -116.04644 35140 ft 429 kts 26°
2026-05-04 07:49 52.84983 -115.99037 35120 ft 430 kts 26°
2026-05-04 07:50 52.89908 -115.93423 35117 ft 430 kts 26°
2026-05-04 07:50 52.94821 -115.87805 35134 ft 428 kts 26°
2026-05-04 07:51 52.99741 -115.82164 35533 ft 429 kts 26°
2026-05-04 07:51 53.02194 -115.79344 35866 ft 430 kts 26°
2026-05-04 07:51 53.04654 -115.76511 36183 ft 431 kts 26°
2026-05-04 07:52 53.07122 -115.73667 36510 ft 431 kts 26°
2026-05-04 07:52 53.09552 -115.70862 36829 ft 432 kts 26°
2026-05-04 07:52 53.12055 -115.67969 37096 ft 433 kts 26°
2026-05-04 07:52 53.14513 -115.65128 37119 ft 435 kts 26°
2026-05-04 07:54 53.34155 -115.42235 37104 ft 432 kts 26°
2026-05-04 07:55 53.39068 -115.36467 37116 ft 430 kts 26°
2026-05-04 07:55 53.43956 -115.30712 37099 ft 429 kts 26°
2026-05-04 07:56 53.48834 -115.24955 37099 ft 428 kts 26°
2026-05-04 07:56 53.53707 -115.19188 37099 ft 429 kts 26°
2026-05-04 07:57 53.58580 -115.13405 37157 ft 429 kts 26°
2026-05-04 07:57 53.63474 -115.07580 37104 ft 432 kts 27°
2026-05-04 07:58 53.68382 -115.01718 37119 ft 433 kts 26°
2026-05-04 07:58 53.73294 -114.95835 37130 ft 434 kts 26°
2026-05-04 07:59 53.78220 -114.89919 37136 ft 435 kts 27°
2026-05-04 07:59 53.83120 -114.84017 37147 ft 435 kts 27°
2026-05-04 08:00 53.88062 -114.78048 37140 ft 437 kts 27°
2026-05-04 08:02 54.07900 -114.53898 37153 ft 439 kts 27°
2026-05-04 08:02 54.12848 -114.47831 37151 ft 440 kts 27°
2026-05-04 08:03 54.17814 -114.41723 37128 ft 440 kts 27°
2026-05-04 08:03 54.22774 -114.35603 37132 ft 440 kts 27°
2026-05-04 08:04 54.27733 -114.29466 37139 ft 440 kts 27°
2026-05-04 08:04 54.32694 -114.23309 37141 ft 441 kts 27°
2026-05-04 08:05 54.37658 -114.17129 37143 ft 441 kts 27°
2026-05-04 08:05 54.42638 -114.10913 37108 ft 444 kts 28°
2026-05-04 08:06 54.47640 -114.04646 37121 ft 446 kts 28°
2026-05-04 08:06 54.52662 -113.98336 37132 ft 448 kts 28°
2026-05-04 08:08 54.72869 -113.72743 37144 ft 454 kts 28°
2026-05-04 08:11 54.95737 -113.43386 37135 ft 455 kts 29°
2026-05-04 08:11 55.03338 -113.33534 37129 ft 454 kts 29°
2026-05-04 08:12 55.08400 -113.26947 37126 ft 454 kts 29°
2026-05-04 08:12 55.13459 -113.20342 37124 ft 454 kts 29°
2026-05-04 08:13 55.18510 -113.13726 37198 ft 454 kts 29°
2026-05-04 08:13 55.23578 -113.07068 37123 ft 456 kts 30°
2026-05-04 08:14 55.27790 -113.01514 37118 ft 456 kts 30°
2026-05-04 08:16 55.48111 -112.74520 37132 ft 461 kts 31°
2026-05-04 08:16 55.53222 -112.67670 37138 ft 462 kts 31°
2026-05-04 08:17 55.58335 -112.60797 37139 ft 462 kts 31°
2026-05-04 08:17 55.63456 -112.53891 37145 ft 463 kts 31°
2026-05-04 08:19 55.83939 -112.26031 37146 ft 464 kts 31°
2026-05-04 08:20 55.89017 -112.19066 37137 ft 464 kts 31°
2026-05-04 08:20 55.94124 -112.12036 37140 ft 463 kts 31°
2026-05-04 08:21 55.99219 -112.05000 37179 ft 463 kts 31°
2026-05-04 08:21 56.04319 -111.97933 37115 ft 464 kts 32°
2026-05-04 08:22 56.09416 -111.90845 37120 ft 464 kts 32°
2026-05-04 08:24 56.29816 -111.62233 37118 ft 467 kts 32°
2026-05-04 08:24 56.34930 -111.54996 37119 ft 467 kts 32°
2026-05-04 08:25 56.40044 -111.47734 37115 ft 468 kts 32°
2026-05-04 08:25 56.45153 -111.40454 37107 ft 468 kts 32°
2026-05-04 08:27 56.65539 -111.10764 37081 ft 474 kts 38°
2026-05-04 08:28 56.70211 -111.02220 37088 ft 476 kts 39°
2026-05-04 08:28 56.74912 -110.93725 37099 ft 476 kts 39°
2026-05-04 08:29 56.79608 -110.85194 37120 ft 477 kts 40°
2026-05-04 08:31 56.98296 -110.50683 37125 ft 478 kts 40°
2026-05-04 08:33 57.16936 -110.15714 37126 ft 478 kts 41°
2026-05-04 08:35 57.35479 -109.80389 37111 ft 478 kts 41°
2026-05-04 08:35 57.40061 -109.71577 37101 ft 478 kts 41°
2026-05-04 08:37 57.56142 -109.40376 37107 ft 477 kts 42°
2026-05-04 08:38 57.60718 -109.31418 37096 ft 476 kts 42°
2026-05-04 08:38 57.65279 -109.22457 37090 ft 476 kts 42°
2026-05-04 08:40 57.83450 -108.86400 37088 ft 476 kts 42°
2026-05-04 08:41 57.87975 -108.77333 37081 ft 476 kts 43°
2026-05-04 08:41 57.92494 -108.68241 37081 ft 476 kts 43°
2026-05-04 08:42 57.97005 -108.59130 37074 ft 476 kts 43°
2026-05-04 08:42 58.01509 -108.49995 37083 ft 475 kts 43°
2026-05-04 08:43 58.06002 -108.40849 37084 ft 475 kts 43°
2026-05-04 08:43 58.10489 -108.31676 37085 ft 475 kts 43°
2026-05-04 08:44 58.14965 -108.22491 37074 ft 475 kts 43°
2026-05-04 08:46 58.32767 -107.85593 37081 ft 475 kts 43°
2026-05-04 08:46 58.37207 -107.76297 37090 ft 475 kts 44°
2026-05-04 08:47 58.41648 -107.66961 37122 ft 475 kts 44°
2026-05-04 08:47 58.46086 -107.57594 37095 ft 476 kts 44°
2026-05-04 08:48 58.50515 -107.48207 37096 ft 476 kts 44°
2026-05-04 08:48 58.54939 -107.38793 37096 ft 475 kts 44°
2026-05-04 08:49 58.59350 -107.29367 37094 ft 475 kts 44°
2026-05-04 08:50 58.74756 -106.96147 37095 ft 476 kts 45°
2026-05-04 08:51 58.79114 -106.86663 37093 ft 476 kts 45°
2026-05-04 08:51 58.83480 -106.77119 37095 ft 476 kts 45°
2026-05-04 08:52 58.87860 -106.67509 37129 ft 476 kts 45°
2026-05-04 08:52 58.92239 -106.57859 37100 ft 478 kts 45°
2026-05-04 08:54 59.09716 -106.18938 37106 ft 479 kts 46°
2026-05-04 08:55 59.14079 -106.09120 37103 ft 479 kts 46°
2026-05-04 08:55 59.18433 -105.99287 37105 ft 479 kts 46°
2026-05-04 09:01 59.56966 -104.83641 37123 ft 484 kts 56°
2026-05-04 09:01 59.60478 -104.72317 37096 ft 483 kts 56°
2026-05-04 09:02 59.63976 -104.60980 37091 ft 483 kts 56°
2026-05-04 09:02 59.67463 -104.49617 37088 ft 483 kts 57°
2026-05-04 09:03 59.70934 -104.38223 37091 ft 483 kts 57°
2026-05-04 09:03 59.73807 -104.28742 37087 ft 483 kts 57°
2026-05-04 09:04 59.77257 -104.17305 37095 ft 483 kts 57°
2026-05-04 09:04 59.80703 -104.05825 37096 ft 483 kts 57°
2026-05-04 09:05 59.84130 -103.94352 37094 ft 484 kts 57°
2026-05-04 09:05 59.87560 -103.82811 37096 ft 484 kts 57°
2026-05-04 09:06 59.90973 -103.71267 37090 ft 484 kts 58°
2026-05-04 09:08 60.04513 -103.24902 37078 ft 483 kts 58°
2026-05-04 09:08 60.07871 -103.13255 37075 ft 483 kts 58°
2026-05-04 09:09 60.11216 -103.01595 37076 ft 483 kts 58°
2026-05-04 09:09 60.14553 -102.89904 37084 ft 482 kts 59°
2026-05-04 09:10 60.17876 -102.78201 37072 ft 482 kts 59°
2026-05-04 09:10 60.21165 -102.66561 37074 ft 482 kts 59°
2026-05-04 09:11 60.24469 -102.54805 37065 ft 482 kts 59°
2026-05-04 09:11 60.27764 -102.43022 37065 ft 483 kts 59°
2026-05-04 09:12 60.31047 -102.31218 37066 ft 483 kts 59°
2026-05-04 09:14 60.44057 -101.83835 37052 ft 481 kts 60°
2026-05-04 09:14 60.47274 -101.71965 37056 ft 480 kts 60°
2026-05-04 09:15 60.50453 -101.60172 37036 ft 479 kts 60°
2026-05-04 09:15 60.53637 -101.48295 37047 ft 479 kts 60°
2026-05-04 09:17 60.67821 -100.94626 37025 ft 479 kts 61°
2026-05-04 09:18 60.70949 -100.82613 37021 ft 479 kts 61°
2026-05-04 09:18 60.74064 -100.70588 37024 ft 479 kts 61°
2026-05-04 09:19 60.77166 -100.58549 37013 ft 478 kts 61°
2026-05-04 09:19 60.80260 -100.46473 37005 ft 479 kts 61°
2026-05-04 09:20 60.83339 -100.34391 37009 ft 478 kts 61°
2026-05-04 09:20 60.86408 -100.22283 37009 ft 478 kts 62°
2026-05-04 09:21 60.89442 -100.10245 37008 ft 477 kts 62°
2026-05-04 09:21 60.92483 -99.98115 36989 ft 477 kts 62°
2026-05-04 09:22 60.95509 -99.85978 36983 ft 477 kts 62°
2026-05-04 09:22 60.98522 -99.73826 36972 ft 477 kts 62°
2026-05-04 09:23 61.01525 -99.61649 36977 ft 477 kts 62°
2026-05-04 09:23 61.04522 -99.49426 36980 ft 477 kts 62°
2026-05-04 09:25 61.16393 -99.00334 36973 ft 477 kts 63°
2026-05-04 09:26 61.19334 -98.87998 36959 ft 478 kts 63°
2026-05-04 09:26 61.22246 -98.75716 36964 ft 477 kts 63°
2026-05-04 09:27 61.25162 -98.63342 36942 ft 477 kts 63°
2026-05-04 09:27 61.28067 -98.50950 36951 ft 477 kts 63°
2026-05-04 09:28 61.30960 -98.38534 36938 ft 477 kts 64°
2026-05-04 09:28 61.33840 -98.26103 36957 ft 476 kts 64°
2026-05-04 09:29 61.36703 -98.13674 36925 ft 476 kts 64°
2026-05-04 09:29 61.39557 -98.01212 36944 ft 475 kts 64°
2026-05-04 09:30 61.42395 -97.88748 36916 ft 475 kts 64°
2026-05-04 09:30 61.45220 -97.76271 36933 ft 475 kts 64°
2026-05-04 09:31 61.48035 -97.63759 36904 ft 476 kts 64°
2026-05-04 09:31 61.50841 -97.51219 36930 ft 475 kts 65°
2026-05-04 09:32 61.53636 -97.38651 36899 ft 476 kts 65°
2026-05-04 09:34 61.64699 -96.88160 36905 ft 477 kts 65°
2026-05-04 09:34 61.67444 -96.75441 36912 ft 477 kts 65°
2026-05-04 09:35 61.70175 -96.62712 36911 ft 477 kts 65°
2026-05-04 09:35 61.72893 -96.49960 36895 ft 477 kts 65°
2026-05-04 09:37 61.83654 -95.98711 36873 ft 477 kts 66°
2026-05-04 09:38 61.86314 -95.85843 36886 ft 477 kts 66°
2026-05-04 09:38 61.88963 -95.72944 36867 ft 477 kts 66°
2026-05-04 09:39 61.91600 -95.60029 36869 ft 477 kts 66°
2026-05-04 09:39 61.94229 -95.47071 36864 ft 478 kts 66°
2026-05-04 09:40 61.96843 -95.34101 36863 ft 478 kts 66°
2026-05-04 09:40 61.99446 -95.21103 36861 ft 478 kts 67°
2026-05-04 09:42 62.09727 -94.68935 36876 ft 477 kts 68°
2026-05-04 09:43 62.12264 -94.55851 36833 ft 477 kts 68°
2026-05-04 09:43 62.14791 -94.42736 36851 ft 477 kts 68°
2026-05-04 09:44 62.17302 -94.29616 36849 ft 476 kts 68°
2026-05-04 09:46 62.27208 -93.76980 36835 ft 475 kts 69°
2026-05-04 09:46 62.29650 -93.63787 36841 ft 475 kts 69°
2026-05-04 09:47 62.32080 -93.50570 36811 ft 476 kts 69°
2026-05-04 09:49 62.41671 -92.97505 36828 ft 476 kts 69°
2026-05-04 09:51 62.49912 -92.50703 36829 ft 475 kts 70°
2026-05-04 09:51 62.52232 -92.37319 36820 ft 475 kts 70°
2026-05-04 09:52 62.54540 -92.23905 36811 ft 475 kts 70°
2026-05-04 09:52 62.56835 -92.10475 36836 ft 474 kts 70°
2026-05-04 09:53 62.59114 -91.97041 36820 ft 474 kts 70°
2026-05-04 09:53 62.61380 -91.83590 36812 ft 474 kts 71°
2026-05-04 09:54 62.63627 -91.70152 36825 ft 473 kts 71°
2026-05-04 09:54 62.65861 -91.56698 36798 ft 473 kts 71°
2026-05-04 09:55 62.67704 -91.45518 36791 ft 473 kts 71°
2026-05-04 09:55 62.69913 -91.32032 36802 ft 472 kts 71°
2026-05-04 09:56 62.72459 -91.16364 36790 ft 473 kts 71°
2026-05-04 09:56 62.74290 -91.05018 36789 ft 473 kts 71°
2026-05-04 09:57 62.76459 -90.91474 36818 ft 473 kts 71°
2026-05-04 09:57 62.78615 -90.77914 36808 ft 473 kts 71°
2026-05-04 09:58 62.80749 -90.64393 36778 ft 474 kts 72°
2026-05-04 09:58 62.82900 -90.50663 36782 ft 474 kts 72°
2026-05-04 10:00 62.91298 -89.95999 36819 ft 474 kts 72°
2026-05-04 10:04 63.05486 -88.99569 36814 ft 474 kts 73°
2026-05-04 10:04 63.07461 -88.85704 36799 ft 474 kts 73°
2026-05-04 10:05 63.09422 -88.71821 36802 ft 474 kts 74°
2026-05-04 10:05 63.11372 -88.57908 36808 ft 474 kts 74°
2026-05-04 10:06 63.13306 -88.43987 36817 ft 473 kts 74°
2026-05-04 10:06 63.15218 -88.30104 36807 ft 473 kts 74°
2026-05-04 10:08 63.21815 -87.81299 36812 ft 472 kts 75°
2026-05-04 10:08 63.23666 -87.67340 36814 ft 472 kts 75°
2026-05-04 10:09 63.25505 -87.53345 36813 ft 473 kts 75°
2026-05-04 10:09 63.27334 -87.39310 36814 ft 473 kts 75°
2026-05-04 10:10 63.29146 -87.25272 36815 ft 473 kts 75°
2026-05-04 10:10 63.30946 -87.11212 36817 ft 473 kts 75°
2026-05-04 10:11 63.32732 -86.97128 36814 ft 473 kts 75°
2026-05-04 10:11 63.34508 -86.83003 36827 ft 473 kts 75°
2026-05-04 10:12 63.36268 -86.68875 36827 ft 473 kts 75°
2026-05-04 10:12 63.38013 -86.54735 36826 ft 473 kts 76°
2026-05-04 10:13 63.39742 -86.40592 36826 ft 472 kts 76°
2026-05-04 10:13 63.41456 -86.26441 36826 ft 472 kts 76°
2026-05-04 10:14 63.43157 -86.12274 36823 ft 472 kts 76°
2026-05-04 10:16 63.49799 -85.55591 36825 ft 471 kts 76°
2026-05-04 10:16 63.51426 -85.41370 36821 ft 471 kts 77°
2026-05-04 10:17 63.53038 -85.27143 36826 ft 471 kts 77°
2026-05-04 10:19 63.59346 -84.70035 36831 ft 472 kts 77°
2026-05-04 10:19 63.60889 -84.55711 36834 ft 472 kts 77°
2026-05-04 10:20 63.62420 -84.41348 36837 ft 472 kts 77°
2026-05-04 10:20 63.63934 -84.26990 36842 ft 472 kts 78°
2026-05-04 10:21 63.65433 -84.12625 36844 ft 472 kts 78°
2026-05-04 10:21 63.66918 -83.98239 36841 ft 472 kts 78°
2026-05-04 10:22 63.69109 -83.76738 36846 ft 471 kts 78°
2026-05-04 10:23 63.70556 -83.62333 36842 ft 471 kts 78°
2026-05-04 10:25 63.76195 -83.04639 36831 ft 470 kts 79°
2026-05-04 10:25 63.77568 -82.90187 36835 ft 470 kts 79°
2026-05-04 10:26 63.78926 -82.75729 36833 ft 470 kts 79°
2026-05-04 10:26 63.80268 -82.61280 36859 ft 470 kts 79°
2026-05-04 10:27 63.81597 -82.46785 36859 ft 470 kts 79°
2026-05-04 10:27 63.82911 -82.32293 36858 ft 470 kts 79°
2026-05-04 10:28 63.84212 -82.17776 36836 ft 470 kts 80°
2026-05-04 10:28 63.85487 -82.03359 36853 ft 470 kts 80°
2026-05-04 10:29 63.86758 -81.88819 36855 ft 470 kts 80°
2026-05-04 10:29 63.88016 -81.74251 36870 ft 470 kts 80°
2026-05-04 10:30 63.89257 -81.59689 36871 ft 470 kts 80°
2026-05-04 10:30 63.90484 -81.45108 36866 ft 470 kts 81°
2026-05-04 10:31 63.91697 -81.30517 36863 ft 470 kts 81°
2026-05-04 10:32 63.95816 -80.79453 36865 ft 469 kts 81°
2026-05-04 10:33 63.96960 -80.64830 36865 ft 469 kts 81°
2026-05-04 10:33 63.98089 -80.50209 36859 ft 469 kts 81°
2026-05-04 10:34 63.99196 -80.35662 36854 ft 469 kts 81°
2026-05-04 10:34 64.00294 -80.21046 36860 ft 469 kts 82°
2026-05-04 10:35 64.01381 -80.06354 36861 ft 470 kts 82°
2026-05-04 10:35 64.02453 -79.91650 36859 ft 470 kts 82°
2026-05-04 10:36 64.03512 -79.76920 36870 ft 471 kts 82°
2026-05-04 10:36 64.04558 -79.62133 36871 ft 472 kts 82°
2026-05-04 10:37 64.05591 -79.47323 36872 ft 473 kts 82°
2026-05-04 10:37 64.06610 -79.32483 36875 ft 473 kts 82°
2026-05-04 10:39 64.10056 -78.80482 36871 ft 473 kts 83°
2026-05-04 10:40 64.11006 -78.65600 36873 ft 473 kts 83°
2026-05-04 10:40 64.11940 -78.50720 36874 ft 473 kts 83°
2026-05-04 10:41 64.12860 -78.35815 36877 ft 473 kts 83°
2026-05-04 10:41 64.13760 -78.20988 36885 ft 473 kts 83°
2026-05-04 10:42 64.14652 -78.06063 36880 ft 473 kts 84°
2026-05-04 10:42 64.15537 -77.91156 36890 ft 473 kts 84°
2026-05-04 10:43 64.16411 -77.76212 36888 ft 473 kts 84°
2026-05-04 10:45 64.19755 -77.16384 36921 ft 472 kts 84°
2026-05-04 10:45 64.20551 -77.01437 36918 ft 471 kts 84°
2026-05-04 10:46 64.21199 -76.89028 36881 ft 471 kts 85°
2026-05-04 10:46 64.22088 -76.71678 36851 ft 470 kts 85°
2026-05-04 10:47 64.22835 -76.56761 36848 ft 470 kts 85°
2026-05-04 10:47 64.24021 -76.44499 36838 ft 474 kts 69°
2026-05-04 10:49 64.36786 -75.91060 36916 ft 478 kts 65°
2026-05-04 10:50 64.39814 -75.77371 36923 ft 479 kts 65°
2026-05-04 10:52 64.51849 -75.22088 36944 ft 481 kts 66°
2026-05-04 10:52 64.54833 -75.08155 36927 ft 482 kts 66°
2026-05-04 10:54 64.66645 -74.52080 36974 ft 482 kts 66°
2026-05-04 10:56 64.78236 -73.95554 36991 ft 481 kts 67°
2026-05-04 10:57 64.81099 -73.81351 37009 ft 481 kts 68°
2026-05-04 10:57 64.83948 -73.67119 37003 ft 481 kts 68°
2026-05-04 10:58 64.86782 -73.52867 37018 ft 481 kts 68°
2026-05-04 10:58 64.89584 -73.38677 37014 ft 481 kts 68°
2026-05-04 10:59 64.92390 -73.24363 37006 ft 482 kts 68°
2026-05-04 10:59 64.95189 -73.09993 37033 ft 482 kts 69°
2026-05-04 11:00 64.97976 -72.95574 37039 ft 482 kts 68°
2026-05-04 11:02 65.08993 -72.37576 37077 ft 483 kts 69°
2026-05-04 11:05 65.29011 -71.27692 37108 ft 484 kts 70°
2026-05-04 11:06 65.31631 -71.12848 37110 ft 485 kts 70°
2026-05-04 11:06 65.34239 -70.97958 37127 ft 485 kts 70°
2026-05-04 11:10 65.52086 -69.92880 37138 ft 485 kts 71°
2026-05-04 11:12 65.61976 -69.32069 37135 ft 488 kts 71°
2026-05-04 11:12 65.64405 -69.16828 37152 ft 489 kts 71°
2026-05-04 11:13 65.66839 -69.01423 37164 ft 490 kts 71°
2026-05-04 11:13 65.69262 -68.85967 37182 ft 491 kts 71°
2026-05-04 11:14 65.71675 -68.70451 37177 ft 491 kts 71°
2026-05-04 11:16 65.81170 -68.08063 37193 ft 491 kts 72°
2026-05-04 11:16 65.83502 -67.92402 37207 ft 491 kts 72°
2026-05-04 11:17 65.85817 -67.76725 37203 ft 491 kts 72°
2026-05-04 11:19 65.94926 -67.13667 37205 ft 492 kts 73°
2026-05-04 11:19 65.97167 -66.97801 37206 ft 493 kts 73°
2026-05-04 11:20 65.99397 -66.81871 37211 ft 493 kts 73°
2026-05-04 11:20 66.01612 -66.65904 37215 ft 494 kts 73°
2026-05-04 11:22 66.10315 -66.01772 37162 ft 495 kts 73°
2026-05-04 11:23 66.12467 -65.85643 37155 ft 495 kts 74°
2026-05-04 11:25 66.18847 -65.28235 37243 ft 496 kts 77°
2026-05-04 11:25 66.20590 -65.11728 37274 ft 496 kts 78°
2026-05-04 11:27 66.28140 -64.36757 37368 ft 499 kts 79°
2026-05-04 11:28 66.29759 -64.20091 37371 ft 499 kts 79°
2026-05-04 11:28 66.31370 -64.03300 37417 ft 500 kts 79°
2026-05-04 11:29 66.32959 -63.86531 37404 ft 499 kts 80°
2026-05-04 11:29 66.34534 -63.69690 37379 ft 500 kts 79°
2026-05-04 11:33 66.45101 -62.50651 37422 ft 503 kts 80°
2026-05-04 11:33 66.46541 -62.33495 37407 ft 505 kts 80°
2026-05-04 11:34 66.47957 -62.16391 37419 ft 506 kts 80°
2026-05-04 11:34 66.49367 -61.99121 37429 ft 507 kts 80°
2026-05-04 11:35 66.50761 -61.81790 37449 ft 507 kts 81°
2026-05-04 11:35 66.52133 -61.64465 37417 ft 507 kts 81°
2026-05-04 11:36 66.53490 -61.47069 37413 ft 508 kts 81°
2026-05-04 11:36 66.54825 -61.29688 37414 ft 507 kts 81°
2026-05-04 11:37 66.55917 -61.15252 37393 ft 508 kts 81°
2026-05-04 11:37 66.57221 -60.97785 37381 ft 509 kts 81°
2026-05-04 11:38 66.58508 -60.80264 37401 ft 510 kts 81°
2026-05-04 11:38 66.59777 -60.62697 37420 ft 511 kts 81°
2026-05-04 11:39 66.61031 -60.45060 37428 ft 512 kts 82°
2026-05-04 11:41 66.65282 -59.82882 37437 ft 516 kts 82°
2026-05-04 11:41 66.66457 -59.65009 37412 ft 517 kts 82°
2026-05-04 11:42 66.67611 -59.47123 37391 ft 517 kts 82°
2026-05-04 11:42 66.68745 -59.29213 37372 ft 516 kts 82°
2026-05-04 11:43 66.69856 -59.11331 37369 ft 516 kts 82°
2026-05-04 11:43 66.70947 -58.93421 37353 ft 516 kts 83°
2026-05-04 11:44 66.72016 -58.75523 37353 ft 515 kts 83°
2026-05-04 11:44 66.73066 -58.57596 37338 ft 515 kts 83°
2026-05-04 11:45 66.74087 -58.39775 37334 ft 516 kts 83°
2026-05-04 11:45 66.75097 -58.21813 37341 ft 516 kts 83°
2026-05-04 11:46 66.76087 -58.03813 37321 ft 516 kts 83°
2026-05-04 11:46 66.77056 -57.85800 37324 ft 517 kts 83°
2026-05-04 11:47 66.78006 -57.67741 37308 ft 517 kts 83°
2026-05-04 11:47 66.78937 -57.49649 37310 ft 518 kts 83°
2026-05-04 11:48 66.79847 -57.31538 37311 ft 518 kts 84°
2026-05-04 11:48 66.80738 -57.13402 37319 ft 518 kts 84°
2026-05-04 11:49 66.81609 -56.95214 37268 ft 520 kts 84°
2026-05-04 11:49 66.82462 -56.76970 37246 ft 522 kts 84°
2026-05-04 11:50 66.83297 -56.58626 37250 ft 524 kts 84°
2026-05-04 11:50 66.84115 -56.40197 37278 ft 526 kts 84°
2026-05-04 11:51 66.84913 -56.21712 37281 ft 527 kts 84°
2026-05-04 11:51 66.85692 -56.03154 37293 ft 528 kts 84°
2026-05-04 11:52 66.86449 -55.84589 37300 ft 528 kts 85°
2026-05-04 11:52 66.87178 -55.66153 37271 ft 528 kts 84°
2026-05-04 11:53 66.87892 -55.47569 37278 ft 527 kts 85°
2026-05-04 11:53 66.88583 -55.28997 37263 ft 527 kts 85°
2026-05-04 11:55 66.91124 -54.54749 37255 ft 525 kts 85°
2026-05-04 11:56 66.91702 -54.36238 37227 ft 525 kts 85°
2026-05-04 11:56 66.92262 -54.17691 37219 ft 525 kts 86°
2026-05-04 11:57 66.92809 -53.99277 37221 ft 525 kts 86°
2026-05-04 11:57 66.93345 -53.80702 37215 ft 525 kts 86°
2026-05-04 11:58 66.93829 -53.62117 37215 ft 526 kts 88°
2026-05-04 11:58 66.94269 -53.43486 37210 ft 526 kts 85°
2026-05-04 11:59 66.94822 -53.24859 37239 ft 527 kts 86°
2026-05-04 11:59 66.95319 -53.06187 37243 ft 528 kts 86°
2026-05-04 12:00 66.95777 -52.87496 37258 ft 528 kts 86°
2026-05-04 12:00 66.96211 -52.68782 37280 ft 528 kts 87°
2026-05-04 12:01 66.96623 -52.50063 37280 ft 528 kts 87°
2026-05-04 12:02 66.97891 -51.84641 37273 ft 527 kts 88°
2026-05-04 12:03 66.98204 -51.65929 37289 ft 528 kts 88°
2026-05-04 12:03 66.98496 -51.47176 37271 ft 528 kts 88°
2026-05-04 12:04 66.98765 -51.28398 37288 ft 529 kts 88°
2026-05-04 12:04 66.99013 -51.09606 37305 ft 530 kts 88°
2026-05-04 12:05 66.99239 -50.90783 37319 ft 530 kts 88°
2026-05-04 12:05 66.99441 -50.72068 37322 ft 531 kts 88°
2026-05-04 12:06 66.99623 -50.53204 37291 ft 531 kts 89°
2026-05-04 12:06 66.99783 -50.34327 37291 ft 531 kts 89°
2026-05-04 12:07 66.99920 -50.15443 37283 ft 532 kts 89°
2026-05-04 12:07 67.00046 -49.96526 37283 ft 532 kts 88°
2026-05-04 12:08 67.00567 -49.77674 37280 ft 532 kts 84°
2026-05-04 12:08 67.01206 -49.58831 37283 ft 532 kts 85°
2026-05-04 12:09 67.01780 -49.39959 37291 ft 532 kts 85°
2026-05-04 12:09 67.02303 -49.21066 37291 ft 532 kts 85°
2026-05-04 12:10 67.02792 -49.02172 37289 ft 532 kts 86°
2026-05-04 12:10 67.03259 -48.83237 37293 ft 533 kts 85°
2026-05-04 12:11 67.03704 -48.64288 37294 ft 533 kts 86°
2026-05-04 12:11 67.04123 -48.45461 37298 ft 533 kts 86°
2026-05-04 12:12 67.04523 -48.26509 37300 ft 533 kts 86°
2026-05-04 12:12 67.04900 -48.07520 37283 ft 534 kts 86°
2026-05-04 12:14 67.06186 -47.31414 37253 ft 535 kts 87°
2026-05-04 12:15 67.06451 -47.12377 37272 ft 535 kts 87°
2026-05-04 12:15 67.06693 -46.93313 37254 ft 535 kts 88°
2026-05-04 12:16 67.06913 -46.74252 37256 ft 535 kts 88°
2026-05-04 12:16 67.07109 -46.55178 37248 ft 535 kts 88°
2026-05-04 12:17 67.07283 -46.36092 37239 ft 536 kts 88°
2026-05-04 12:17 67.07435 -46.16964 37232 ft 536 kts 88°
2026-05-04 12:18 67.07564 -45.97837 37245 ft 536 kts 88°
2026-05-04 12:18 67.07669 -45.78732 37250 ft 536 kts 88°
2026-05-04 12:19 67.07752 -45.59615 37251 ft 536 kts 89°
2026-05-04 12:19 67.07812 -45.40528 37257 ft 536 kts 89°
2026-05-04 12:20 67.07849 -45.21538 37258 ft 536 kts 89°
2026-05-04 12:20 67.07863 -45.02364 37244 ft 537 kts 89°
2026-05-04 12:21 67.07854 -44.83191 37255 ft 538 kts 89°
2026-05-04 12:21 67.07823 -44.63997 37257 ft 538 kts 89°
2026-05-04 12:22 67.07768 -44.44818 37267 ft 538 kts 90°
2026-05-04 12:22 67.07690 -44.25624 37270 ft 538 kts 90°
2026-05-04 12:23 67.07589 -44.06419 37267 ft 538 kts 90°
2026-05-04 12:23 67.07465 -43.87226 37300 ft 539 kts 90°
2026-05-04 12:24 67.07317 -43.67973 37253 ft 540 kts 90°
2026-05-04 12:24 67.07146 -43.48695 37245 ft 541 kts 90°
2026-05-04 12:25 67.06952 -43.29396 37256 ft 542 kts 91°
2026-05-04 12:25 67.06733 -43.10063 37276 ft 543 kts 91°
2026-05-04 12:26 67.06491 -42.90711 37274 ft 543 kts 91°
2026-05-04 12:26 67.06272 -42.74637 37292 ft 543 kts 91°
2026-05-04 12:27 67.05987 -42.55278 37254 ft 545 kts 91°
2026-05-04 12:27 67.05625 -42.32718 37320 ft 546 kts 91°
2026-05-04 12:28 67.05343 -42.16438 37332 ft 546 kts 91°
2026-05-04 12:28 67.04987 -41.97019 37355 ft 546 kts 91°
2026-05-04 12:29 67.04608 -41.77698 37382 ft 546 kts 92°
2026-05-04 12:29 67.04203 -41.58258 37384 ft 547 kts 92°
2026-05-04 12:30 67.03774 -41.38815 37393 ft 547 kts 92°
2026-05-04 12:30 67.03320 -41.19357 37402 ft 548 kts 92°
2026-05-04 12:31 67.02842 -40.99866 37403 ft 548 kts 92°
2026-05-04 12:31 67.02341 -40.80401 37431 ft 548 kts 92°
2026-05-04 12:32 67.01545 -40.51212 37431 ft 548 kts 92°
2026-05-04 12:33 67.00988 -40.31771 37445 ft 548 kts 93°
2026-05-04 12:33 67.00421 -40.12327 37445 ft 548 kts 93°
2026-05-04 12:34 66.99571 -39.92938 37443 ft 549 kts 98°
2026-05-04 12:34 66.98219 -39.73739 37405 ft 549 kts 99°
2026-05-04 12:35 66.96944 -39.54544 37463 ft 548 kts 99°
2026-05-04 12:35 66.95659 -39.35388 37456 ft 547 kts 99°
2026-05-04 12:36 66.94332 -39.16265 37441 ft 547 kts 99°
2026-05-04 12:36 66.92973 -38.97194 37433 ft 546 kts 99°
2026-05-04 12:37 66.91591 -38.78158 37430 ft 546 kts 100°
2026-05-04 12:37 66.90183 -38.59101 37367 ft 548 kts 100°
2026-05-04 12:38 66.88754 -38.40083 37376 ft 547 kts 100°
2026-05-04 12:38 66.87301 -38.21083 37375 ft 547 kts 101°
2026-05-04 12:39 66.85828 -38.02126 37359 ft 547 kts 101°
2026-05-04 12:39 66.84331 -37.83189 37359 ft 546 kts 101°
2026-05-04 12:40 66.82823 -37.64404 37360 ft 547 kts 101°
2026-05-04 12:40 66.81282 -37.45518 37343 ft 547 kts 101°
2026-05-04 12:41 66.79715 -37.26622 37327 ft 548 kts 101°
2026-05-04 12:41 66.78124 -37.07714 37326 ft 548 kts 101°
2026-05-04 12:42 66.76392 -36.87459 37331 ft 549 kts 102°
2026-05-04 12:42 66.74749 -36.68555 37355 ft 549 kts 102°
2026-05-04 12:43 66.73084 -36.49683 37356 ft 550 kts 102°
2026-05-04 12:43 66.71399 -36.30854 37337 ft 550 kts 102°
2026-05-04 12:44 66.69689 -36.12037 37392 ft 549 kts 103°
2026-05-04 12:44 66.67958 -35.93268 37386 ft 550 kts 103°
2026-05-04 12:45 66.66204 -35.74504 37398 ft 549 kts 103°
2026-05-04 12:45 66.64428 -35.55775 37396 ft 549 kts 103°
2026-05-04 12:46 66.62632 -35.37077 37402 ft 549 kts 103°
2026-05-04 12:46 66.60813 -35.18420 37375 ft 549 kts 104°
2026-05-04 12:47 66.58975 -34.99823 37405 ft 548 kts 104°
2026-05-04 12:47 66.57126 -34.81356 37387 ft 548 kts 104°
2026-05-04 12:48 66.55245 -34.62818 37411 ft 548 kts 104°
2026-05-04 12:48 66.53342 -34.44304 37375 ft 548 kts 104°
2026-05-04 12:49 66.51417 -34.25817 37376 ft 548 kts 104°
2026-05-04 12:49 66.49470 -34.07355 37346 ft 547 kts 105°
2026-05-04 12:50 66.47505 -33.88963 37368 ft 547 kts 105°
2026-05-04 12:50 66.45519 -33.70596 37367 ft 547 kts 105°
2026-05-04 12:51 66.43510 -33.52255 37364 ft 547 kts 105°
2026-05-04 12:51 66.41482 -33.33960 37393 ft 547 kts 105°
2026-05-04 12:52 66.39428 -33.15653 37360 ft 547 kts 105°
2026-05-04 12:52 66.37356 -32.97405 37343 ft 547 kts 105°
2026-05-04 12:53 66.35265 -32.79211 37333 ft 547 kts 106°
2026-05-04 12:53 66.33148 -32.61007 37334 ft 547 kts 106°
2026-05-04 12:54 66.31026 -32.42975 37336 ft 547 kts 106°
2026-05-04 12:54 66.28869 -32.24844 37315 ft 547 kts 107°
2026-05-04 12:55 66.26688 -32.06724 37313 ft 548 kts 107°
2026-05-04 12:55 66.24843 -31.91562 37292 ft 548 kts 107°
2026-05-04 12:56 66.22620 -31.73476 37301 ft 548 kts 107°
2026-05-04 12:56 66.20376 -31.55423 37304 ft 549 kts 107°
2026-05-04 12:57 66.18110 -31.37389 37296 ft 549 kts 107°
2026-05-04 12:57 66.15837 -31.19503 37294 ft 549 kts 107°
2026-05-04 12:58 66.13530 -31.01538 37293 ft 549 kts 108°
2026-05-04 12:58 66.11199 -30.83588 37280 ft 548 kts 107°
2026-05-04 12:59 66.08850 -30.65689 37276 ft 550 kts 108°
2026-05-04 12:59 66.06472 -30.47761 37281 ft 550 kts 108°
2026-05-04 13:00 66.04080 -30.29881 37284 ft 551 kts 108°
2026-05-04 13:00 66.01673 -30.11982 37283 ft 551 kts 108°
2026-05-04 13:01 65.99152 -29.94200 37283 ft 551 kts 111°
2026-05-04 13:01 65.96339 -29.76721 37273 ft 551 kts 111°
2026-05-04 13:02 65.93609 -29.59183 37267 ft 551 kts 110°
2026-05-04 13:02 65.90866 -29.41643 37264 ft 552 kts 111°
2026-05-04 13:03 65.88091 -29.24156 37267 ft 551 kts 111°
2026-05-04 13:03 65.85306 -29.06851 37260 ft 551 kts 111°
2026-05-04 13:04 65.82478 -28.89458 37261 ft 551 kts 111°
2026-05-04 13:04 65.79631 -28.72108 37261 ft 550 kts 111°
2026-05-04 13:05 65.76769 -28.54820 37261 ft 550 kts 111°
2026-05-04 13:05 65.73887 -28.37568 37259 ft 550 kts 112°
2026-05-04 13:06 65.70989 -28.20377 37307 ft 550 kts 112°
2026-05-04 13:06 65.68063 -28.03175 37261 ft 551 kts 112°
2026-05-04 13:07 65.65118 -27.86014 37252 ft 551 kts 112°
2026-05-04 13:07 65.62159 -27.68918 37267 ft 550 kts 112°
2026-05-04 13:08 65.59181 -27.51863 37272 ft 550 kts 112°
2026-05-04 13:08 65.56186 -27.34859 37272 ft 550 kts 113°
2026-05-04 13:09 65.53172 -27.17900 37278 ft 550 kts 113°
2026-05-04 13:09 65.50138 -27.00967 37276 ft 550 kts 113°
2026-05-04 13:10 65.47088 -26.84092 37272 ft 550 kts 113°
2026-05-04 13:10 65.44016 -26.67235 37273 ft 550 kts 114°
2026-05-04 13:11 65.40947 -26.50540 37270 ft 550 kts 114°
2026-05-04 13:11 65.37841 -26.33780 37272 ft 550 kts 114°
2026-05-04 13:12 65.34715 -26.17057 37273 ft 550 kts 114°
2026-05-04 13:12 65.31573 -26.00383 37273 ft 550 kts 114°
2026-05-04 13:13 65.28425 -25.83812 37280 ft 548 kts 115°
2026-05-04 13:13 65.25251 -25.67247 37270 ft 550 kts 115°
2026-05-04 13:14 65.22051 -25.50676 37269 ft 550 kts 115°
2026-05-04 13:14 65.18833 -25.34147 37270 ft 550 kts 115°
2026-05-04 13:15 65.15599 -25.17665 37273 ft 550 kts 115°
2026-05-04 13:15 65.12357 -25.01278 37247 ft 550 kts 116°
2026-05-04 13:16 65.09086 -24.84875 37269 ft 549 kts 116°
2026-05-04 13:16 65.05802 -24.68537 37273 ft 549 kts 116°
2026-05-04 13:17 65.02496 -24.52222 37322 ft 550 kts 116°
2026-05-04 13:17 64.99187 -24.36015 37262 ft 551 kts 116°
2026-05-04 13:18 64.95815 -24.19626 37263 ft 551 kts 116°
2026-05-04 13:18 64.92473 -24.03508 37273 ft 551 kts 117°
2026-05-04 13:19 64.89087 -23.87308 37274 ft 551 kts 117°
2026-05-04 13:19 64.85683 -23.71146 37276 ft 551 kts 117°
2026-05-04 13:20 64.82263 -23.55030 37276 ft 551 kts 117°
2026-05-04 13:20 64.78826 -23.38959 37267 ft 551 kts 117°
2026-05-04 13:21 64.75371 -23.22926 37252 ft 552 kts 117°
2026-05-04 13:21 64.71895 -23.06917 37252 ft 551 kts 118°
2026-05-04 13:22 64.68403 -22.90951 37250 ft 552 kts 118°
2026-05-04 13:22 64.64890 -22.75013 37247 ft 552 kts 118°
2026-05-04 13:23 64.61357 -22.59101 37246 ft 552 kts 118°
2026-05-04 13:23 64.57808 -22.43235 37307 ft 555 kts 118°
2026-05-04 13:23 64.56017 -22.35273 37752 ft 554 kts 118°
2026-05-04 13:24 64.54233 -22.27373 38267 ft 551 kts 118°
2026-05-04 13:24 64.52447 -22.19491 38800 ft 550 kts 118°
2026-05-04 13:24 64.50660 -22.11633 39087 ft 552 kts 118°
2026-05-04 13:25 64.47057 -21.95878 39219 ft 547 kts 119°
2026-05-04 13:25 64.45275 -21.88123 39220 ft 545 kts 119°
2026-05-04 13:25 64.41687 -21.72606 39219 ft 548 kts 119°
2026-05-04 13:26 64.38073 -21.57084 39212 ft 548 kts 119°
2026-05-04 13:26 64.34447 -21.41626 39211 ft 547 kts 119°
2026-05-04 13:27 64.30834 -21.26326 39202 ft 547 kts 119°
2026-05-04 13:27 64.27191 -21.11011 39194 ft 545 kts 119°
2026-05-04 13:28 64.23525 -20.95705 39181 ft 546 kts 120°
2026-05-04 13:28 64.19845 -20.80448 39179 ft 545 kts 120°
2026-05-04 13:29 64.16156 -20.65260 39181 ft 545 kts 120°
2026-05-04 13:29 64.12455 -20.50129 39169 ft 544 kts 120°
2026-05-04 13:30 64.08741 -20.35040 39169 ft 544 kts 120°
2026-05-04 13:30 64.05018 -20.19970 39167 ft 545 kts 120°
2026-05-04 13:31 64.01280 -20.04923 39181 ft 546 kts 121°
2026-05-04 13:31 63.97532 -19.89852 39158 ft 548 kts 120°
2026-05-04 13:32 63.93853 -19.74620 39174 ft 550 kts 118°
2026-05-04 13:32 63.90199 -19.59359 39187 ft 551 kts 119°
2026-05-04 13:33 63.86531 -19.44181 39199 ft 552 kts 119°
2026-05-04 13:33 63.82813 -19.28940 39213 ft 553 kts 119°
2026-05-04 13:34 63.79066 -19.13739 39203 ft 553 kts 120°
2026-05-04 13:34 63.75294 -18.98561 39206 ft 553 kts 120°
2026-05-04 13:35 63.69620 -18.75920 39194 ft 552 kts 120°
2026-05-04 13:36 63.65828 -18.60921 39189 ft 551 kts 120°
2026-05-04 13:36 63.62026 -18.45981 39173 ft 550 kts 120°
2026-05-04 13:37 63.58211 -18.31089 39167 ft 549 kts 120°
2026-05-04 13:37 63.54387 -18.16262 39156 ft 548 kts 121°
2026-05-04 13:38 63.50557 -18.01513 39142 ft 548 kts 121°
2026-05-04 13:38 63.46709 -17.86791 39160 ft 548 kts 121°
2026-05-04 13:39 63.42842 -17.72096 39141 ft 548 kts 121°
2026-05-04 13:39 63.38962 -17.57447 39145 ft 548 kts 121°
2026-05-04 13:40 63.35093 -17.42933 39142 ft 548 kts 121°
2026-05-04 13:40 63.31177 -17.28339 39142 ft 549 kts 121°
2026-05-04 13:41 63.27249 -17.13797 39146 ft 549 kts 121°
2026-05-04 13:41 63.23301 -16.99272 39154 ft 549 kts 122°
2026-05-04 13:42 63.17349 -16.77554 39167 ft 550 kts 121°
2026-05-04 13:42 63.13361 -16.63119 39159 ft 549 kts 122°
2026-05-04 13:43 63.09364 -16.48744 39153 ft 549 kts 122°
2026-05-04 13:43 63.05359 -16.34431 39157 ft 547 kts 122°
2026-05-04 13:44 63.01345 -16.20177 39148 ft 547 kts 122°
2026-05-04 13:44 62.97329 -16.06006 39143 ft 547 kts 123°
2026-05-04 13:45 62.93289 -15.91839 39138 ft 546 kts 123°
2026-05-04 13:45 62.89924 -15.80106 39137 ft 546 kts 123°
2026-05-04 13:46 62.85867 -15.66039 39116 ft 546 kts 123°
2026-05-04 13:46 62.81795 -15.52009 39129 ft 546 kts 123°
2026-05-04 13:47 62.77701 -15.37993 39128 ft 547 kts 123°
2026-05-04 13:47 62.73594 -15.24015 39133 ft 547 kts 123°
2026-05-04 13:48 62.69467 -15.10056 39135 ft 548 kts 123°
2026-05-04 13:48 62.65326 -14.96136 39143 ft 548 kts 124°
2026-05-04 13:49 62.61168 -14.82247 39121 ft 548 kts 124°
2026-05-04 13:49 62.57000 -14.68405 39115 ft 548 kts 124°
2026-05-04 13:50 62.52821 -14.54612 39113 ft 548 kts 124°
2026-05-04 13:50 62.48653 -14.40938 39108 ft 548 kts 124°
2026-05-04 13:51 62.44446 -14.27218 39109 ft 548 kts 124°
2026-05-04 13:51 62.40222 -14.13526 39092 ft 548 kts 124°
2026-05-04 13:52 62.33871 -13.93095 39114 ft 547 kts 124°
2026-05-04 13:53 62.29620 -13.79517 39099 ft 547 kts 125°
2026-05-04 13:53 62.25364 -13.66007 39098 ft 546 kts 125°
2026-05-04 13:54 62.18950 -13.45794 39094 ft 546 kts 125°
2026-05-04 13:55 62.12526 -13.25727 39099 ft 545 kts 126°
2026-05-04 13:55 62.06075 -13.05753 39120 ft 544 kts 126°
2026-05-04 13:56 62.01787 -12.92570 39091 ft 545 kts 126°
2026-05-04 13:57 61.95291 -12.72744 39087 ft 544 kts 126°
2026-05-04 13:58 61.86600 -12.46480 39083 ft 543 kts 126°
2026-05-04 13:58 61.80050 -12.26884 39084 ft 544 kts 127°
2026-05-04 13:59 61.75667 -12.13865 39089 ft 544 kts 127°
2026-05-04 14:00 61.69062 -11.94382 39055 ft 543 kts 127°
2026-05-04 14:00 61.62448 -11.75038 39058 ft 543 kts 127°
2026-05-04 14:01 61.58047 -11.62257 39078 ft 543 kts 127°
2026-05-04 14:02 61.51388 -11.43049 39072 ft 543 kts 127°
2026-05-04 14:02 61.46929 -11.30278 39084 ft 543 kts 127°
2026-05-04 14:03 61.42466 -11.17563 39058 ft 542 kts 128°
2026-05-04 14:03 61.37994 -11.04894 39059 ft 542 kts 128°
2026-05-04 14:04 61.31268 -10.85970 39065 ft 542 kts 128°
2026-05-04 14:04 61.26768 -10.73395 39066 ft 542 kts 128°
2026-05-04 14:05 61.20000 -10.54611 39058 ft 541 kts 128°
2026-05-04 14:06 61.15474 -10.42132 39041 ft 542 kts 128°
2026-05-04 14:06 61.10937 -10.29673 39042 ft 542 kts 128°
2026-05-04 14:07 61.06422 -10.17318 39040 ft 542 kts 128°
2026-05-04 14:07 61.01863 -10.04921 39045 ft 542 kts 129°
2026-05-04 14:08 60.97184 -9.92742 39046 ft 541 kts 132°
2026-05-04 14:08 60.92353 -9.80872 39054 ft 541 kts 131°
2026-05-04 14:09 60.85197 -9.62962 39077 ft 541 kts 131°
2026-05-04 14:10 60.78011 -9.45103 39046 ft 541 kts 131°
2026-05-04 14:10 60.73210 -9.33279 39041 ft 540 kts 131°
2026-05-04 14:11 60.68398 -9.21500 39053 ft 540 kts 131°
2026-05-04 14:11 60.61167 -9.03918 39051 ft 539 kts 132°
2026-05-04 14:12 60.56336 -8.92245 39053 ft 539 kts 132°
2026-05-04 14:13 60.49071 -8.74802 39038 ft 539 kts 132°
2026-05-04 14:13 60.44221 -8.63227 39063 ft 537 kts 132°
2026-05-04 14:14 60.39408 -8.51803 39058 ft 537 kts 133°
2026-05-04 14:14 60.32133 -8.34641 39049 ft 536 kts 133°
2026-05-04 14:15 60.22405 -8.11891 39041 ft 535 kts 133°
2026-05-04 14:16 60.15103 -7.94960 39041 ft 535 kts 133°
2026-05-04 14:17 60.07772 -7.78091 39043 ft 535 kts 133°
2026-05-04 14:18 60.00416 -7.61286 39042 ft 535 kts 133°
2026-05-04 14:19 59.90592 -7.39032 39055 ft 534 kts 134°
2026-05-04 14:19 59.85676 -7.27979 39049 ft 533 kts 134°
2026-05-04 14:20 59.80783 -7.17030 39046 ft 533 kts 134°
2026-05-04 14:20 59.75852 -7.06048 39041 ft 532 kts 134°
2026-05-04 14:21 59.68451 -6.89664 39047 ft 531 kts 134°
2026-05-04 14:21 59.63516 -6.78805 39038 ft 531 kts 134°
2026-05-04 14:22 59.58570 -6.67971 39031 ft 531 kts 134°
2026-05-04 14:22 59.53616 -6.57174 39028 ft 530 kts 134°
2026-05-04 14:23 59.46180 -6.41060 39038 ft 530 kts 135°
2026-05-04 14:24 59.41217 -6.30368 39023 ft 529 kts 135°
2026-05-04 14:24 59.36254 -6.19728 39024 ft 529 kts 135°
2026-05-04 14:25 59.31280 -6.09113 39021 ft 528 kts 135°
2026-05-04 14:25 59.23811 -5.93264 39018 ft 528 kts 135°
2026-05-04 14:26 59.18858 -5.82815 39017 ft 528 kts 135°
2026-05-04 14:26 59.13872 -5.72345 39019 ft 527 kts 135°
2026-05-04 14:27 59.08872 -5.61894 39015 ft 527 kts 135°
2026-05-04 14:27 59.03869 -5.51485 39013 ft 527 kts 136°
2026-05-04 14:28 58.98864 -5.41118 39011 ft 527 kts 136°
2026-05-04 14:28 58.93843 -5.30766 39013 ft 527 kts 136°
2026-05-04 14:29 58.83799 -5.10199 39017 ft 525 kts 136°
2026-05-04 14:30 58.78772 -4.99975 39017 ft 525 kts 136°
2026-05-04 14:31 58.71219 -4.84699 39009 ft 524 kts 136°
2026-05-04 14:32 58.61135 -4.64462 39004 ft 524 kts 137°
2026-05-04 14:32 58.56123 -4.54471 39002 ft 524 kts 137°
2026-05-04 14:33 58.51068 -4.44437 38995 ft 523 kts 137°
2026-05-04 14:33 58.46005 -4.34432 39009 ft 524 kts 137°
2026-05-04 14:34 58.40926 -4.24440 38989 ft 525 kts 137°
2026-05-04 14:34 58.35835 -4.14468 38983 ft 525 kts 137°
2026-05-04 14:35 58.30730 -4.04512 38992 ft 526 kts 137°
2026-05-04 14:35 58.25610 -3.94571 38988 ft 526 kts 137°
2026-05-04 14:36 58.20476 -3.84647 38997 ft 527 kts 137°
2026-05-04 14:36 58.15336 -3.74755 38996 ft 527 kts 137°
2026-05-04 14:37 58.10193 -3.64898 39027 ft 525 kts 137°
2026-05-04 14:37 58.05064 -3.55114 39001 ft 523 kts 137°
2026-05-04 14:38 57.99973 -3.45443 38999 ft 522 kts 137°
2026-05-04 14:38 57.94853 -3.35760 39001 ft 521 kts 138°
2026-05-04 14:39 57.89737 -3.26124 38997 ft 520 kts 138°
2026-05-04 14:39 57.84626 -3.16540 39017 ft 518 kts 138°
2026-05-04 14:40 57.77799 -3.03801 39002 ft 516 kts 138°
2026-05-04 14:40 57.72741 -2.94410 39001 ft 515 kts 138°
2026-05-04 14:41 57.67649 -2.84995 38994 ft 515 kts 138°
2026-05-04 14:42 57.57475 -2.66300 38990 ft 512 kts 138°
2026-05-04 14:42 57.52390 -2.57016 38985 ft 511 kts 139°
2026-05-04 14:43 57.47303 -2.47764 38987 ft 511 kts 139°
2026-05-04 14:43 57.42220 -2.38559 38992 ft 510 kts 139°
2026-05-04 14:44 57.37130 -2.29368 38960 ft 511 kts 139°
2026-05-04 14:44 57.32039 -2.20203 38978 ft 510 kts 139°
2026-05-04 14:45 57.26952 -2.11076 38976 ft 509 kts 139°
2026-05-04 14:45 57.21798 -2.02128 38978 ft 508 kts 141°
2026-05-04 14:46 57.16440 -1.93646 38973 ft 508 kts 142°
2026-05-04 14:46 57.11118 -1.85098 38978 ft 508 kts 142°
2026-05-04 14:47 57.05801 -1.76588 39027 ft 505 kts 141°
2026-05-04 14:47 57.00519 -1.68179 39004 ft 505 kts 142°
2026-05-04 14:48 56.95172 -1.59706 38997 ft 505 kts 142°
2026-05-04 14:48 56.89893 -1.51371 38999 ft 504 kts 142°
2026-05-04 14:49 56.84573 -1.43005 39003 ft 504 kts 142°
2026-05-04 14:49 56.79257 -1.34678 39018 ft 503 kts 142°
2026-05-04 14:50 56.73946 -1.26391 39015 ft 502 kts 142°
2026-05-04 14:50 56.68649 -1.18158 39019 ft 501 kts 142°
2026-05-04 14:51 56.63346 -1.09945 39019 ft 501 kts 142°
2026-05-04 14:51 56.58043 -1.01765 39026 ft 500 kts 142°
2026-05-04 14:52 56.52754 -0.93638 39024 ft 498 kts 142°
2026-05-04 14:52 56.47460 -0.85533 39019 ft 498 kts 142°
2026-05-04 14:53 56.42173 -0.77471 39015 ft 497 kts 142°
2026-05-04 14:53 56.36886 -0.69438 39013 ft 496 kts 142°
2026-05-04 14:54 56.31601 -0.61438 39010 ft 496 kts 142°
2026-05-04 14:54 56.26318 -0.53472 39012 ft 495 kts 142°
2026-05-04 14:55 56.21032 -0.45529 39011 ft 495 kts 142°
2026-05-04 14:55 56.15742 -0.37611 39009 ft 495 kts 142°
2026-05-04 14:56 56.10456 -0.29728 39009 ft 495 kts 142°
2026-05-04 14:56 56.05161 -0.21861 39010 ft 494 kts 142°
2026-05-04 14:57 55.99861 -0.14015 39011 ft 495 kts 142°
2026-05-04 14:57 55.94592 -0.06244 39013 ft 495 kts 142°
2026-05-04 14:58 55.89276 0.01569 39007 ft 496 kts 143°
2026-05-04 14:58 55.83949 0.09368 39012 ft 496 kts 143°
2026-05-04 14:59 55.78608 0.17159 39018 ft 497 kts 143°
2026-05-04 15:00 55.70625 0.28935 39029 ft 498 kts 139°
2026-05-04 15:00 55.65586 0.37380 39034 ft 499 kts 138°
2026-05-04 15:01 55.57998 0.49989 39039 ft 499 kts 139°
2026-05-04 15:01 55.52895 0.58320 39034 ft 499 kts 139°
2026-05-04 15:02 55.47795 0.66607 39036 ft 498 kts 139°
2026-05-04 15:02 55.42688 0.74876 39039 ft 498 kts 139°
2026-05-04 15:03 55.37585 0.83108 39035 ft 498 kts 139°
2026-05-04 15:03 55.32471 0.91329 39039 ft 498 kts 139°
2026-05-04 15:04 55.27360 0.99515 39040 ft 497 kts 139°
2026-05-04 15:04 55.22281 1.07619 39052 ft 497 kts 139°
2026-05-04 15:05 55.17170 1.15747 39052 ft 496 kts 139°
2026-05-04 15:05 55.12061 1.23842 39051 ft 495 kts 139°
2026-05-04 15:06 55.06949 1.31911 39041 ft 495 kts 139°
2026-05-04 15:07 54.99283 1.43959 39035 ft 494 kts 139°
2026-05-04 15:07 54.94171 1.51956 39049 ft 493 kts 139°
2026-05-04 15:08 54.89064 1.59917 39043 ft 493 kts 139°
2026-05-04 15:08 54.83957 1.67851 39038 ft 493 kts 139°
2026-05-04 15:09 54.78852 1.75754 39038 ft 493 kts 140°
2026-05-04 15:09 54.73726 1.83660 39028 ft 492 kts 140°
2026-05-04 15:10 54.66080 1.95403 39031 ft 492 kts 140°
2026-05-04 15:11 54.58398 2.07138 39034 ft 492 kts 140°
2026-05-04 15:11 54.53257 2.14958 39031 ft 492 kts 140°
2026-05-04 15:12 54.48121 2.22742 39040 ft 492 kts 140°
2026-05-04 15:12 54.42929 2.30410 39047 ft 491 kts 144°
2026-05-04 15:13 54.37395 2.37249 39047 ft 490 kts 146°
2026-05-04 15:13 54.31826 2.44023 39047 ft 491 kts 146°
2026-05-04 15:14 54.26272 2.50798 39048 ft 491 kts 146°
2026-05-04 15:14 54.20710 2.57564 39039 ft 491 kts 146°
2026-05-04 15:15 54.15145 2.64302 39047 ft 490 kts 146°
2026-05-04 15:15 54.09573 2.71023 39041 ft 490 kts 146°
2026-05-04 15:16 54.01218 2.81056 39039 ft 490 kts 147°
2026-05-04 15:17 53.92847 2.91058 39046 ft 490 kts 147°
2026-05-04 15:17 53.84523 3.00956 39043 ft 489 kts 147°
2026-05-04 15:18 53.78950 3.07555 39038 ft 489 kts 147°
2026-05-04 15:19 53.70586 3.17418 39035 ft 489 kts 147°
2026-05-04 15:19 53.62220 3.27235 39044 ft 488 kts 147°
2026-05-04 15:20 53.56648 3.33745 39042 ft 488 kts 147°
2026-05-04 15:20 53.51073 3.40240 39046 ft 487 kts 147°
2026-05-04 15:21 53.45503 3.46706 39043 ft 487 kts 147°
2026-05-04 15:22 53.37130 3.56388 39032 ft 487 kts 147°
2026-05-04 15:22 53.28759 3.66020 39026 ft 487 kts 148°
2026-05-04 15:23 53.23171 3.72424 39022 ft 487 kts 148°
2026-05-04 15:23 53.17583 3.78808 39020 ft 487 kts 148°
2026-05-04 15:24 53.06439 3.91478 39009 ft 486 kts 148°
2026-05-04 15:25 53.00850 3.97800 39011 ft 486 kts 148°
2026-05-04 15:26 52.92461 4.07256 38995 ft 486 kts 148°
2026-05-04 15:26 52.84060 4.16677 38993 ft 487 kts 148°
2026-05-04 15:27 52.75646 4.26069 38993 ft 487 kts 148°
2026-05-04 15:28 52.67210 4.35442 38984 ft 487 kts 149°
2026-05-04 15:29 52.58780 4.44764 38982 ft 487 kts 149°
2026-05-04 15:30 52.40061 4.65306 39008 ft 484 kts 149°
2026-05-04 15:31 52.31662 4.74455 38991 ft 483 kts 149°
2026-05-04 15:32 52.17693 4.89575 38965 ft 481 kts 149°
2026-05-04 15:33 52.12144 4.95550 38478 ft 477 kts 150°
2026-05-04 15:34 52.03808 5.04488 35871 ft 481 kts 151°
2026-05-04 15:34 52.01013 5.07477 35048 ft 480 kts 151°
2026-05-04 15:34 51.95463 5.13402 33159 ft 476 kts 152°
2026-05-04 15:35 51.90115 5.19095 31627 ft 462 kts 151°
2026-05-04 15:35 51.87464 5.21916 31267 ft 448 kts 151°
2026-05-04 15:35 51.84904 5.24634 30912 ft 435 kts 151°
2026-05-04 15:36 51.79914 5.29905 29864 ft 424 kts 150°
2026-05-04 15:36 51.77462 5.32490 29347 ft 418 kts 150°
2026-05-04 15:36 51.75051 5.35031 28836 ft 412 kts 150°
2026-05-04 15:37 51.72669 5.37538 28355 ft 406 kts 150°
2026-05-04 15:37 51.70315 5.40013 27877 ft 401 kts 150°
2026-05-04 15:37 51.67992 5.42452 27383 ft 397 kts 150°
2026-05-04 15:37 51.65693 5.44863 26910 ft 392 kts 150°
2026-05-04 15:38 51.63417 5.47247 26435 ft 389 kts 150°
2026-05-04 15:38 51.61159 5.49609 25967 ft 385 kts 150°
2026-05-04 15:38 51.58915 5.51954 25492 ft 384 kts 150°
2026-05-04 15:38 51.56717 5.54250 25026 ft 381 kts 150°
2026-05-04 15:39 51.54496 5.56564 24559 ft 378 kts 149°
2026-05-04 15:39 51.52288 5.58861 24091 ft 377 kts 149°
2026-05-04 15:39 51.47883 5.63439 23097 ft 377 kts 149°
2026-05-04 15:40 51.45695 5.65711 22630 ft 375 kts 149°
2026-05-04 15:40 51.43513 5.67974 22148 ft 371 kts 149°
2026-05-04 15:40 51.41359 5.70208 21682 ft 367 kts 149°
2026-05-04 15:40 51.39223 5.72418 21211 ft 365 kts 149°
2026-05-04 15:41 51.37092 5.74618 20753 ft 365 kts 149°
2026-05-04 15:41 51.34952 5.76826 20288 ft 366 kts 149°
2026-05-04 15:41 51.32807 5.79034 19814 ft 368 kts 149°
2026-05-04 15:41 51.30648 5.81255 19336 ft 369 kts 148°
2026-05-04 15:42 51.28488 5.83476 18858 ft 370 kts 148°
2026-05-04 15:42 51.26319 5.85706 18380 ft 371 kts 148°
2026-05-04 15:42 51.24150 5.87933 17838 ft 370 kts 148°
2026-05-04 15:42 51.22001 5.90136 17369 ft 364 kts 148°
2026-05-04 15:43 51.19883 5.92305 16911 ft 359 kts 148°
2026-05-04 15:43 51.17826 5.94409 16443 ft 354 kts 148°
2026-05-04 15:43 51.15763 5.96517 15986 ft 350 kts 148°
2026-05-04 15:43 51.13727 5.98595 15522 ft 346 kts 148°
2026-05-04 15:44 51.11735 6.00625 15088 ft 342 kts 147°
2026-05-04 15:44 51.09716 6.02683 14626 ft 339 kts 147°
2026-05-04 15:44 51.07732 6.04700 14195 ft 337 kts 147°
2026-05-04 15:44 51.05796 6.06667 13750 ft 334 kts 147°
2026-05-04 15:45 51.03841 6.08653 13285 ft 332 kts 147°
2026-05-04 15:45 51.01904 6.10620 12853 ft 329 kts 147°
2026-05-04 15:45 50.99985 6.12566 12424 ft 326 kts 147°
2026-05-04 15:45 50.98087 6.14489 11993 ft 323 kts 147°
2026-05-04 15:46 50.96203 6.16397 11573 ft 320 kts 147°
2026-05-04 15:46 50.94335 6.18285 11155 ft 317 kts 147°
2026-05-04 15:46 50.92488 6.20151 10806 ft 312 kts 147°
2026-05-04 15:46 50.90697 6.21960 10687 ft 299 kts 147°
2026-05-04 15:47 50.89117 6.23981 10525 ft 291 kts 128°
2026-05-04 15:47 50.88221 6.26804 10284 ft 289 kts 103°
2026-05-04 15:47 50.87993 6.29954 10055 ft 287 kts 94°
2026-05-04 15:47 50.87880 6.33089 9988 ft 284 kts 94°
2026-05-04 15:48 50.87759 6.36234 9990 ft 287 kts 94°
2026-05-04 15:48 50.87752 6.39384 9966 ft 286 kts 84°
2026-05-04 15:48 50.88697 6.45326 9810 ft 268 kts 73°
2026-05-04 15:49 50.89218 6.48114 9571 ft 263 kts 74°
2026-05-04 15:49 50.89719 6.50858 9194 ft 262 kts 74°
2026-05-04 15:49 50.90230 6.53668 8822 ft 261 kts 74°
2026-05-04 15:49 50.90731 6.56418 8493 ft 259 kts 75°
2026-05-04 15:50 50.91228 6.59143 8183 ft 258 kts 75°
2026-05-04 15:50 50.91730 6.61886 7678 ft 262 kts 76°
2026-05-04 15:50 50.92240 6.64681 7371 ft 262 kts 76°
2026-05-04 15:50 50.92738 6.67415 7195 ft 259 kts 76°
2026-05-04 15:51 50.93423 6.70024 7055 ft 255 kts 61°
2026-05-04 15:51 50.94455 6.72274 6717 ft 253 kts 52°
2026-05-04 15:51 50.95557 6.74456 6313 ft 252 kts 53°
2026-05-04 15:51 50.96632 6.76635 5884 ft 250 kts 54°
2026-05-04 15:52 50.97691 6.78802 5553 ft 245 kts 54°
2026-05-04 15:52 50.98717 6.80902 5284 ft 237 kts 54°
2026-05-04 15:52 50.99725 6.82970 4908 ft 236 kts 54°
2026-05-04 15:52 51.00728 6.85026 4505 ft 235 kts 53°
2026-05-04 15:53 51.01726 6.87074 4142 ft 234 kts 53°
2026-05-04 15:53 51.02499 6.89290 3706 ft 229 kts 80°
2026-05-04 15:53 51.02448 6.91753 3346 ft 223 kts 113°
2026-05-04 15:53 51.01553 6.93643 3196 ft 211 kts 143°
2026-05-04 15:54 51.00413 6.95051 3069 ft 206 kts 143°
2026-05-04 15:54 50.99327 6.96509 2989 ft 204 kts 140°
2026-05-04 15:54 50.98275 6.98036 2991 ft 205 kts 140°
2026-05-04 15:54 50.97242 6.99536 2809 ft 203 kts 140°
2026-05-04 15:55 50.96241 7.00998 2498 ft 190 kts 140°
2026-05-04 15:55 50.95292 7.02377 2240 ft 176 kts 140°
2026-05-04 15:55 50.94415 7.03653 1983 ft 170 kts 139°
2026-05-04 15:55 50.93573 7.04881 1764 ft 156 kts 139°
2026-05-04 15:56 50.92815 7.05985 1551 ft 144 kts 139°
2026-05-04 15:56 50.92080 7.07056 1361 ft 143 kts 139°
2026-05-04 15:56 50.91349 7.08113 1154 ft 143 kts 140°
2026-05-04 15:56 50.90619 7.09179 957 ft 143 kts 139°
2026-05-04 15:57 50.89880 7.10255 757 ft 144 kts 139°
2026-05-04 15:57 50.89143 7.11323 578 ft 144 kts 139°
2026-05-04 15:57 50.88408 7.12384 392 ft 143 kts 140°
2026-05-04 15:57 50.87681 7.13442 244 ft 136 kts 138°
2026-05-04 15:58 50.87115 7.14266 256 ft 83 kts 137°
2026-05-04 15:58 50.86815 7.14695 270 ft 30 kts 139°
2026-05-04 15:58 50.86735 7.14806 274 ft 3 kts 137°
2026-05-04 15:58 50.86629 7.14961 279 ft 26 kts 137°
2026-05-04 15:59 50.86511 7.15131 284 ft 23 kts 137°
2026-05-04 15:59 50.86373 7.15270 293 ft 25 kts 157°
2026-05-04 15:59 50.86207 7.15339 295 ft 21 kts 167°
2026-05-04 15:59 50.86073 7.15327 300 ft 16 kts 221°
2026-05-04 16:00 50.86051 7.15162 299 ft 16 kts 294°
2026-05-04 16:00 50.86127 7.15014 295 ft 19 kts 317°
2026-05-04 16:00 50.86236 7.14856 288 ft 23 kts 316°
2026-05-04 16:00 50.86366 7.14665 279 ft 27 kts 321°
2026-05-04 16:01 50.86512 7.14462 270 ft 28 kts 317°
2026-05-04 16:01 50.86648 7.14262 266 ft 25 kts 317°
2026-05-04 16:01 50.86785 7.14101 260 ft 24 kts 328°
2026-05-04 16:01 50.86911 7.13956 256 ft 22 kts 321°
2026-05-04 16:02 50.87025 7.13779 248 ft 23 kts 315°
2026-05-04 16:02 50.87141 7.13615 243 ft 22 kts 319°
2026-05-04 16:02 50.87359 7.13300 237 ft 20 kts 316°
2026-05-04 16:03 50.87379 7.13266 237 ft 0 kts 300°
2026-05-04 16:03 50.87382 7.13230 237 ft 6 kts 258°
2026-05-04 16:03 50.87356 7.13172 237 ft 6 kts 231°
2026-05-04 16:03 50.87346 7.13155 237 ft 0 kts 229°
2026-05-04 16:04 50.87344 7.13151 237 ft 0 kts 227°